* Astronomy

Members Login
Username 
 
Password 
    Remember Me  
Post Info TOPIC: POLYSAT CP6 satellite re-entry


L

Posts: 131433
Date:
RE: POLYSAT CP6 satellite re-entry
Permalink  
 


Update:
The POLYSAT CP6 satellite re-entered the Earths atmosphere on the 6th October, 2011 @ 05:26 GMT  ± 3 hours.

CP6
1 35003U 09028C   11278.76493853 +.05638703 +71200-5 +11831-2 0 08211
2 35003 040.4370 161.0594 0006849 275.9761 084.3784 16.29831142134897

Inclination: 40.44°
Revolution Number: 13495
Predicted Location:  3°S, 246.9°E



__________________


L

Posts: 131433
Date:
Permalink  
 

Update:
The POLYSAT CP6 satellite is predicted to re-enter the Earths atmosphere on the 6th October, 2011 @ 05:29 GMT  ± 4 hours.

CP6
1 35003U 09028C   11278.08934937  .03021500  69764-5  13058-2 0  8190
2 35003 040.4368 165.6492 0005014 269.8786 089.9898 16.21604390134783

Period:       88.94 minutes
Inclination: 40.44°
Apogee:     229 km
Perigee:     215 km
Revolution Number: 13496
Predicted Location:  11.3°S, 256°E



__________________


L

Posts: 131433
Date:
Permalink  
 

Update:
The POLYSAT CP6 satellite is predicted to re-enter the Earths atmosphere on the 6th October, 2011 @ 08:08 GMT  ± 18 hours.

CP6
1 35003U 09028C   11278.08934937  .03021500  69764-5  13058-2 0  8190
2 35003 040.4368 165.6492 0005014 269.8786 089.9898 16.21604390134783

Period:       89.38 minutes
Inclination: 40.44°
Apogee:     252 km
Perigee:     236 km
Revolution Number: 13497
Predicted Location:  31.2°N, 156.8°E



__________________


L

Posts: 131433
Date:
Permalink  
 

Update:
The POLYSAT CP6 satellite is predicted to re-enter the Earths atmosphere on the 6th October, 2011 @ 09:12 GMT  ± 24 hours.

CP6
1 35003U 09028C   11276.91662595 +.02259267 +58039-2 +18576-2 0 08134
2 35003 040.4413 173.5396 0011304 262.3271 097.5887 16.14307283134596

Period:       89.38 minutes
Inclination: 40.44°
Apogee:     252 km
Perigee:     236 km
Revolution Number: 13499
Predicted Location:  16.4°N, 25.8°E



__________________


L

Posts: 131433
Date:
Permalink  
 

Update:
The POLYSAT CP6 satellite is predicted to re-enter the Earths atmosphere on the 6th October, 2011 @ 12:42 GMT  ± 48 hours.

CP6
1 35003U 09028C   11275.92554333 +.01821712 +25829-2 +18924-2 0 08108
2 35003 040.4412 180.1502 0012109 264.4406 095.5099 16.10046464134438

Period:       89.59 minutes
Inclination: 40.44°
Apogee:     262 km
Perigee:     246 km
Revolution Number: 13500
Predicted Location:  13.5°N, 115.5°E



__________________


L

Posts: 131433
Date:
Permalink  
 

The POLYSAT CP6 satellite that was launched on the 19th May, 2009, from Wallops Island, Virginia, with the TacSat-3 satellite mission is predicted to re-enter the Earths atmosphere on the 6th October, 2011 @ --:-- GMT  ± -- hours.

CP6
1 35003U 09028C   11273.25163638  .01093506  62116-3  17656-2 0  8021
2 35003 040.4442 197.8124 0013928 252.8682 107.0112 16.02468137134007

Period:       89.91 minutes
Inclination: 40.44°
Apogee:     279 km
Perigee:     261 km
Revolution Number: -
Predicted Location:  -



__________________
Page 1 of 1  sorted by
 
Quick Reply

Please log in to post quick replies.



Create your own FREE Forum
Report Abuse
Powered by ActiveBoard